Flag for India Weather past 2 weeks in Faridabad, Haryana, India

Now
57 °F

Fog.


Feels Like: 56 °F
Forecast: 44 / 65 °F
Wind: 7 mph from West

Location: New Delhi Palam Airport

Current Time: Dec 19, 2014 at 3:20:00 PM

Latest Report: Dec 19, 2014 at 2:30 PM


Visibility: 0 mi

Pressure: 30.15 "Hg

Humidity: 94%

Dew point: 55 °F

Location of FaridabadLocation

Historic Weather in Faridabad — Graph

°F

Faridabad temperature yesterday

Maximum temperature yesterday: 59 °F (at 3:30 PM)
Minimum temperature yesterday: 43 °F (at 5:00 AM)
Average temperature yesterday: 50 °F

Past Weeks' High & Low Weather Summary

 TemperatureHumidityPressure
High81 °F (Dec 4, 2:30 PM)100% (Dec 10, 7:00 AM)30.24 "Hg (Dec 10, 7:00 AM)
Low43 °F (Dec 18, 5:00 AM)14% (Dec 10, 2:30 PM)29.92 "Hg (Dec 8, 4:30 PM)
Average59 °F69%30.05 "Hg
* Reported Dec 4 1:30 PM — Dec 19 1:30 PM, Faridabad, Weather by CustomWeather, © 2014

Note: Actual official high and low records may vary slightly from our data, if they occured in-between our weather recording intervals... More about our weather records

Advertising

Faridabad weather history for previous 24 hours

 ConditionsComfort  
Time TempWeatherWind HumidityBarometerVisibility
1:30 PM
Dec 19
57 °FFog.6 mph82%30.18 "Hg1 mi
1:00 PM55 °FFog.3 mph82%30.18 "Hg1 mi
12:00 PM52 °FFog.3 mph94%30.21 "Hg1 mi
11:30 AM50 °FFog.5 mph100%30.24 "Hg1 mi
11:00 AM50 °FFog.3 mph100%30.24 "Hg1 mi
10:30 AM48 °FFog.3 mph100%30.24 "Hg0 mi
10:00 AM48 °FFog.5 mph100%30.24 "Hg0 mi
9:30 AM48 °FFog.2 mph100%30.24 "Hg0 mi
9:00 AM48 °FFog.No wind94%30.24 "Hg0 mi
8:30 AM48 °FFog.No wind94%30.24 "Hg0 mi
8:00 AM48 °FFog.No wind94%30.21 "Hg0 mi
7:30 AM48 °FFog.3 mph94%30.21 "Hg0 mi
7:00 AM48 °FFog.No wind94%30.18 "Hg0 mi
6:30 AM48 °FFog.No wind94%30.18 "Hg0 mi
6:00 AM46 °FFog.No wind100%30.18 "Hg0 mi
5:30 AM46 °FFog.No wind93%30.18 "Hg0 mi
5:00 AM46 °FFog.No wind93%30.18 "Hg0 mi
4:30 AM46 °FFog.No wind93%30.18 "Hg0 mi
4:00 AM46 °FFog.No wind93%30.18 "Hg0 mi
3:30 AM46 °FFog.No wind93%30.15 "Hg0 mi
3:00 AM46 °FFog.No wind93%30.12 "Hg0 mi
2:30 AM46 °FFog.No wind93%30.12 "Hg0 mi
1:30 AM46 °FFog.No wind93%30.12 "Hg0 mi
1:00 AM46 °FFog.No wind93%30.15 "Hg0 mi
12:00 AM48 °FFog.No wind94%30.15 "Hg0 mi
11:30 PM
Dec 18
48 °FCool.No wind94%30.15 "Hg0 mi
11:00 PM50 °FCool.No wind94%30.15 "Hg0 mi
10:30 PM52 °FFog.No wind94%30.15 "Hg0 mi
10:00 PM52 °FFog.No wind100%30.15 "Hg1 mi
9:30 PM52 °FFog.No wind100%30.15 "Hg1 mi
8:30 PM54 °FFog.No wind94%30.15 "Hg1 mi
7:30 PM55 °FFog.3 mph94%30.15 "Hg1 mi
7:00 PM55 °FFog.3 mph94%30.12 "Hg1 mi
6:30 PM55 °FFog.3 mph94%30.12 "Hg1 mi
5:30 PM57 °FFog.N/A88%30.12 "Hg1 mi
5:00 PM57 °FFog.5 mph88%30.12 "Hg1 mi
4:30 PM59 °FFog.5 mph77%30.12 "Hg1 mi
4:00 PM59 °FFog.5 mph77%30.12 "Hg1 mi
3:30 PM59 °FFog.5 mph77%30.12 "Hg1 mi
Weather by CustomWeather, © 2014

See weather overviewHow to use our weather pages